Main page
Satellite images Climate Cyclones Lightning AirportsFAQ Languages Contact Newsletter About
Weather : Europe Africa North America South America Asia Australia-Oceania Others

, Mae Hong Son, Mae Hong Son Airport

48300

latitude: , longitude: Thailand, elevation: 19-18N m


METAR: VTCH 240500Z 30005KT 9999 SCT020 SCT025 27/22 Q1010 NOSIG